TimeEST,TemperatureF,Dew PointF,Humidity,Sea Level PressureIn,VisibilityMPH,Wind Direction,Wind SpeedMPH,Gust SpeedMPH,PrecipitationIn,Events,Conditions,WindDirDegrees,DateUTC
12:15 AM,46.4,41.0,81,30.31,10.0,NNE,8.1,-,N/A,,Unknown,20,2012-12-14 05:15:00
12:35 AM,46.4,41.0,81,30.32,10.0,NNE,6.9,-,N/A,,Unknown,20,2012-12-14 05:35:00
12:55 AM,46.4,41.0,81,30.32,7.0,NNE,8.1,-,N/A,,Unknown,30,2012-12-14 05:55:00
2:15 AM,44.6,39.2,81,30.30,10.0,NNE,6.9,-,N/A,,Unknown,30,2012-12-14 07:15:00
2:55 AM,44.6,39.2,81,30.31,7.0,NE,6.9,-,N/A,,Unknown,40,2012-12-14 07:55:00
3:15 AM,44.6,39.2,81,30.30,7.0,NNE,6.9,-,N/A,,Unknown,30,2012-12-14 08:15:00
3:35 AM,44.6,39.2,81,30.30,7.0,NNE,6.9,-,N/A,,Unknown,30,2012-12-14 08:35:00
3:55 AM,42.8,39.2,87,30.29,7.0,NNE,6.9,-,N/A,,Unknown,30,2012-12-14 08:55:00
4:15 AM,42.8,39.2,87,30.29,7.0,NNE,6.9,-,N/A,,Unknown,30,2012-12-14 09:15:00
4:35 AM,42.8,39.2,87,30.29,7.0,NNE,5.8,-,N/A,,Unknown,30,2012-12-14 09:35:00
4:55 AM,42.8,39.2,87,30.29,7.0,NNE,5.8,-,N/A,,Unknown,20,2012-12-14 09:55:00
5:15 AM,42.8,37.4,81,30.29,7.0,NNE,5.8,-,N/A,,Unknown,30,2012-12-14 10:15:00
5:35 AM,42.8,37.4,81,30.30,7.0,NE,5.8,-,N/A,,Unknown,40,2012-12-14 10:35:00
5:55 AM,42.8,37.4,81,30.31,7.0,North,4.6,-,N/A,,Unknown,10,2012-12-14 10:55:00
6:15 AM,42.8,37.4,81,30.32,7.0,NNE,6.9,-,N/A,,Unknown,20,2012-12-14 11:15:00
6:35 AM,42.8,37.4,81,30.33,7.0,North,5.8,-,N/A,,Unknown,360,2012-12-14 11:35:00
6:55 AM,42.8,37.4,81,30.34,7.0,North,4.6,-,N/A,,Unknown,10,2012-12-14 11:55:00
7:15 AM,42.8,37.4,81,30.35,10.0,North,3.5,-,N/A,,Unknown,360,2012-12-14 12:15:00
7:35 AM,42.8,37.4,81,30.35,5.0,NNE,5.8,-,N/A,,Haze,30,2012-12-14 12:35:00
7:55 AM,42.8,37.4,81,30.35,5.0,North,6.9,-,N/A,,Haze,10,2012-12-14 12:55:00
8:15 AM,44.6,37.4,76,30.35,7.0,NNE,9.2,-,N/A,,Unknown,20,2012-12-14 13:15:00
8:35 AM,44.6,37.4,76,30.36,7.0,NNE,9.2,-,N/A,,Unknown,30,2012-12-14 13:35:00
8:55 AM,44.6,37.4,76,30.36,7.0,North,6.9,-,N/A,,Unknown,10,2012-12-14 13:55:00
9:15 AM,46.4,37.4,71,30.37,7.0,North,6.9,-,N/A,,Unknown,360,2012-12-14 14:15:00
9:35 AM,46.4,37.4,71,30.37,4.0,North,8.1,-,N/A,,Haze,360,2012-12-14 14:35:00
10:15 AM,50.0,37.4,62,30.38,7.0,North,5.8,-,N/A,,Unknown,10,2012-12-14 15:15:00
10:35 AM,50.0,39.2,66,30.38,7.0,North,4.6,-,N/A,,Unknown,360,2012-12-14 15:35:00
10:55 AM,51.8,39.2,62,30.38,10.0,North,5.8,-,N/A,,Unknown,350,2012-12-14 15:55:00
11:15 AM,51.8,41.0,67,30.37,7.0,NNW,5.8,-,N/A,,Unknown,340,2012-12-14 16:15:00
11:35 AM,53.6,41.0,62,30.36,10.0,North,5.8,-,N/A,,Unknown,350,2012-12-14 16:35:00
11:55 AM,55.4,41.0,58,30.34,7.0,North,5.8,-,N/A,,Unknown,10,2012-12-14 16:55:00
12:15 PM,53.6,41.0,62,30.33,7.0,NW,5.8,-,N/A,,Unknown,320,2012-12-14 17:15:00
12:35 PM,53.6,41.0,62,30.32,7.0,NNW,4.6,-,N/A,,Unknown,330,2012-12-14 17:35:00
12:55 PM,55.4,41.0,58,30.31,7.0,NNW,3.5,-,N/A,,Unknown,340,2012-12-14 17:55:00
1:15 PM,55.4,41.0,58,30.30,7.0,North,5.8,-,N/A,,Unknown,350,2012-12-14 18:15:00
1:35 PM,57.2,41.0,55,30.28,10.0,NNE,3.5,-,N/A,,Unknown,20,2012-12-14 18:35:00
2:15 PM,59.0,41.0,51,30.26,10.0,NE,4.6,-,N/A,,Unknown,40,2012-12-14 19:15:00
2:35 PM,59.0,41.0,51,30.25,10.0,North,3.5,-,N/A,,Unknown,10,2012-12-14 19:35:00
2:55 PM,59.0,41.0,51,30.24,7.0,North,4.6,-,N/A,,Unknown,360,2012-12-14 19:55:00
3:15 PM,59.0,39.2,48,30.23,7.0,North,3.5,-,N/A,,Unknown,350,2012-12-14 20:15:00
3:35 PM,59.0,39.2,48,30.24,7.0,NW,3.5,-,N/A,,Unknown,320,2012-12-14 20:35:00
3:55 PM,57.2,39.2,51,30.23,7.0,NNW,4.6,-,N/A,,Unknown,330,2012-12-14 20:55:00
4:15 PM,57.2,39.2,51,30.23,5.0,NNW,3.5,-,N/A,,Haze,340,2012-12-14 21:15:00
4:35 PM,57.2,41.0,55,30.23,7.0,Calm,Calm,-,N/A,,Unknown,0,2012-12-14 21:35:00
4:55 PM,55.4,41.0,58,30.23,10.0,Calm,Calm,-,N/A,,Unknown,0,2012-12-14 21:55:00
5:15 PM,53.6,42.8,67,30.23,10.0,Calm,Calm,-,N/A,,Unknown,0,2012-12-14 22:15:00
5:35 PM,50.0,42.8,76,30.23,7.0,Calm,Calm,-,N/A,,Unknown,0,2012-12-14 22:35:00
5:55 PM,48.2,42.8,82,30.23,7.0,Calm,Calm,-,N/A,,Unknown,0,2012-12-14 22:55:00
6:15 PM,46.4,42.8,87,30.23,7.0,Calm,Calm,-,N/A,,Unknown,0,2012-12-14 23:15:00
6:35 PM,46.4,42.8,87,30.24,10.0,Calm,Calm,-,N/A,,Unknown,0,2012-12-14 23:35:00
6:55 PM,44.6,41.0,87,30.24,10.0,Calm,Calm,-,N/A,,Unknown,0,2012-12-14 23:55:00
7:15 PM,44.6,41.0,87,30.25,7.0,Calm,Calm,-,N/A,,Unknown,0,2012-12-15 00:15:00
7:35 PM,42.8,41.0,93,30.26,7.0,Calm,Calm,-,N/A,,Unknown,0,2012-12-15 00:35:00
8:35 PM,41.0,39.2,93,30.26,7.0,Calm,Calm,-,N/A,,Unknown,0,2012-12-15 01:35:00
8:55 PM,41.0,39.2,93,30.25,7.0,Calm,Calm,-,N/A,,Unknown,0,2012-12-15 01:55:00
9:15 PM,41.0,39.2,93,30.25,7.0,Calm,Calm,-,N/A,,Unknown,0,2012-12-15 02:15:00
9:35 PM,41.0,39.2,93,30.25,5.0,Calm,Calm,-,N/A,,Mist,0,2012-12-15 02:35:00
9:55 PM,41.0,39.2,93,30.26,5.0,Calm,Calm,-,N/A,,Mist,0,2012-12-15 02:55:00
10:15 PM,41.0,39.2,93,30.24,7.0,Calm,Calm,-,N/A,,Unknown,0,2012-12-15 03:15:00
10:35 PM,41.0,39.2,93,30.25,7.0,Calm,Calm,-,N/A,,Unknown,0,2012-12-15 03:35:00
10:55 PM,41.0,39.2,93,30.24,7.0,Calm,Calm,-,N/A,,Unknown,0,2012-12-15 03:55:00
11:15 PM,41.0,39.2,93,30.25,7.0,Calm,Calm,-,N/A,,Unknown,0,2012-12-15 04:15:00
11:35 PM,41.0,39.2,93,30.25,7.0,Calm,Calm,-,N/A,,Unknown,0,2012-12-15 04:35:00
11:55 PM,42.8,41.0,93,30.25,7.0,Calm,Calm,-,N/A,,Unknown,0,2012-12-15 04:55:00